Wind_Speed
6 5 6 6 6 6 6 6 6 6 5 5 5 4 4 3 2 2 3 3 3 3 3 3 3 4 5 6 8 7 7 8 8 8 8 8 7 7 8 8 8 8 8
6 6 6 7 7 7 7 6 7 7 7 6 5 5 4 3 4 4 4 4 4 4 3 2 2 2 4 6 8 8 8 8 7 7 7 7 7 8 8 8 8 8 7
7 7 7 7 8 8 7 7 7 7 7 6 5 5 5 5 5 5 5 5 4 4 3 3 1 1 3 6 8 8 8 7 6 6 6 5 6 7 7 7 7 7 7
8 8 7 8 8 8 8 8 8 7 6 6 6 5 6 6 5 5 5 4 4 3 3 2 1 1 3 5 6 7 7 6 5 4 5 5 6 7 6 6 6 6 6
8 8 8 8 8 8 8 8 8 7 7 6 6 6 6 6 5 5 4 4 4 4 4 3 2 2 3 4 5 6 6 6 5 4 5 6 6 6 6 5 6 6 6
8 9 9 9 8 8 8 8 7 7 7 6 6 5 5 6 5 5 4 4 4 4 3 2 3 3 3 5 5 5 5 5 4 4 4 5 5 5 5 5 6 7 7
9 9 10 9 8 8 7 7 7 7 7 6 6 5 5 6 5 5 5 5 5 4 3 3 3 4 4 4 3 3 3 3 3 4 3 3 4 4 4 5 6 7 6
8 9 9 9 8 8 8 7 7 7 7 6 6 6 5 6 6 6 5 5 4 3 3 3 3 4 4 3 3 3 3 2 3 3 3 3 3 3 3 3 5 5 6
9 9 9 8 9 8 8 7 7 7 7 7 7 6 6 6 6 6 5 5 5 4 4 3 3 3 4 4 3 3 3 3 2 2 2 2 2 3 3 4 4 5 6
10 9 9 9 9 8 8 7 7 7 7 7 7 7 7 6 6 6 6 6 5 5 5 4 3 4 4 4 3 2 2 3 2 2 2 1 2 2 2 3 3 3 4
9 10 10 9 9 8 9 8 8 8 7 8 8 7 7 7 7 6 6 6 6 5 5 5 4 4 4 4 3 2 2 2 2 2 1 1 1 2 2 2 2 3 4
10 10 10 10 10 9 9 8 8 8 8 8 7 8 7 7 7 6 6 6 7 6 5 5 5 4 4 3 4 2 2 2 2 1 1 0 1 1 1 2 2 3 4
10 10 10 10 10 10 9 9 8 8 8 8 7 8 8 7 7 7 7 7 7 6 5 5 5 4 4 3 3 4 3 2 2 1 0 1 1 2 2 3 4 4 4
10 10 9 10 9 9 9 9 9 8 8 8 7 7 7 7 7 8 7 7 6 5 5 4 4 4 4 4 4 4 3 3 2 2 1 2 2 3 4 4 5 5 5
9 9 9 8 8 8 8 8 7 8 8 7 8 8 7 6 7 7 7 6 5 4 4 3 3 3 4 3 3 3 3 3 3 2 2 2 3 4 4 5 6 6 7
9 9 9 8 8 8 8 7 7 7 7 7 7 7 7 6 6 6 6 5 5 4 4 4 5 4 3 3 3 3 3 3 3 3 3 4 4 5 5 6 7 8 8
9 9 9 8 8 8 7 7 7 7 7 7 6 6 6 6 5 5 5 5 5 5 5 4 4 4 4 4 4 4 4 4 4 5 5 6 6 7 7 8 8 8 9
9 9 8 8 8 7 7 7 7 6 5 5 6 6 6 6 6 5 5 5 5 4 4 4 4 4 4 4 4 4 5 5 6 6 6 7 7 8 8 8 8 8 8
8 8 8 8 7 7 6 7 7 6 5 4 4 5 5 6 6 6 5 5 5 5 4 4 5 5 5 5 5 5 6 6 7 7 7 7 8 8 8 9 9 9 9
7 7 7 7 7 6 6 7 7 6 5 5 5 4 4 5 5 5 6 5 5 5 5 5 5 5 5 6 6 6 7 7 8 8 8 8 8 8 9 9 10 10 11
7 6 6 6 6 7 6 6 6 6 6 5 5 5 4 4 5 5 5 5 5 6 6 6 6 6 6 6 6 7 8 8 8 8 9 9 9 9 10 10 11 11 12
6 5 5 5 6 6 6 6 6 5 5 5 5 5 5 5 5 6 6 6 6 6 6 7 7 7 7 7 7 8 8 8 8 9 10 10 10 11 11 12 12 12 13
5 5 4 4 5 4 5 5 5 5 5 5 5 5 5 5 6 6 6 7 7 7 7 8 8 8 8 8 8 8 8 8 9 10 11 11 12 12 12 12 13 13 13
5 5 4 4 4 4 4 4 4 4 5 5 5 5 5 5 6 6 7 7 7 8 8 9 9 9 9 9 9 9 10 10 10 10 11 11 12 13 13 14 14 14 14
4 4 4 4 4 4 4 4 4 5 5 5 5 5 5 6 6 7 7 8 8 8 8 9 10 10 11 11 11 10 11 11 12 12 11 11 12 13 13 14 14 14 14
4 3 3 3 3 3 3 4 4 5 5 5 5 5 6 6 6 7 8 9 9 9 10 10 11 11 11 11 11 11 12 12 13 13 13 13 14 14 14 14 14 14 15
Wind_Direction
67 63 60 64 62 63 74 83 76 88 90 88 83 83 87 91 93 101 128 140 141 154 159 175 205 223 223 215 203 205 209 211 209 208 215 221 213 207 213 218 222 224 227
68 69 65 64 62 63 68 71 71 83 88 85 83 85 83 85 95 108 120 137 141 154 164 179 193 224 223 211 204 201 209 206 207 209 215 210 205 205 212 218 224 226 231
68 73 75 69 64 64 66 65 67 77 86 86 82 83 86 87 100 108 110 127 135 138 137 148 145 201 196 187 193 196 199 206 213 210 204 203 206 205 209 218 223 227 233
73 76 73 66 66 69 71 70 72 76 82 87 87 85 89 93 109 119 115 121 124 121 117 127 112 165 161 175 192 199 200 202 207 209 203 209 215 211 213 220 228 234 237
71 73 72 67 66 71 74 76 77 78 82 85 89 89 95 99 101 107 102 100 108 110 108 100 96 140 153 175 189 196 201 207 208 216 216 216 217 215 218 225 232 240 242
68 74 79 73 71 72 74 75 78 81 86 87 91 91 90 98 95 99 97 97 100 102 114 131 130 146 155 171 186 191 198 203 206 209 202 201 204 213 223 229 234 240 247
69 74 78 76 75 73 76 78 80 79 86 90 95 94 92 98 97 99 101 99 101 108 124 153 163 165 156 146 153 170 188 197 186 195 204 202 196 198 214 215 224 232 246
69 70 73 73 74 74 77 80 81 81 85 88 91 95 99 106 103 100 99 93 95 104 117 126 154 158 157 144 145 153 168 185 180 184 203 206 196 204 217 222 232 241 253
68 71 73 74 75 76 78 80 82 84 87 89 90 92 99 106 105 100 96 91 88 99 104 111 116 145 150 141 143 154 162 162 173 195 205 218 235 248 242 244 242 251 261
66 70 74 75 75 73 76 77 79 83 91 93 91 91 98 100 99 97 98 98 96 95 96 107 116 134 134 129 137 149 170 167 174 179 186 219 234 246 257 250 253 263 262
68 69 73 76 75 71 76 79 79 81 87 91 91 91 96 99 99 99 98 95 90 94 97 101 105 111 132 125 132 132 125 140 133 133 152 193 220 246 264 259 261 265 260
71 74 75 73 73 74 78 80 82 84 85 88 90 91 92 96 97 95 89 82 89 93 95 95 96 103 99 106 102 92 78 90 88 87 88 273 282 279 284 296 298 275 271
69 70 73 73 71 70 74 80 82 85 84 84 83 90 90 86 86 84 84 86 88 90 95 97 91 85 74 64 61 56 60 70 59 40 300 305 302 291 296 303 311 297 283
67 67 71 73 72 72 71 77 75 81 87 84 79 81 86 87 86 88 92 90 90 89 85 84 91 78 59 56 47 43 45 39 39 24 322 297 287 279 287 296 297 288 284
64 62 67 71 72 72 74 74 73 77 78 80 83 82 89 90 90 85 84 86 87 82 76 66 65 60 60 50 37 31 32 21 13 358 333 292 283 283 290 293 288 284 282
62 63 65 67 69 74 72 72 74 78 76 72 71 66 68 78 83 80 73 67 65 60 56 52 48 47 43 31 22 11 4 5 355 340 317 305 301 296 293 294 293 289 285
63 64 64 66 68 68 70 71 70 74 77 72 69 68 64 60 55 52 50 46 41 39 36 37 36 30 26 19 11 358 343 333 328 319 307 303 302 299 296 297 298 295 291
63 62 63 65 61 60 65 68 64 65 70 67 66 61 56 52 51 51 46 38 29 23 21 22 21 18 10 4 357 343 332 322 314 314 305 300 301 300 298 297 297 295 292
61 61 59 59 58 58 62 65 62 62 59 51 52 51 50 46 44 40 32 25 17 11 7 6 0 354 345 334 327 321 320 320 318 312 306 299 297 298 297 297 297 296 294
55 55 55 58 58 56 57 60 57 55 54 46 40 40 39 41 38 29 29 25 16 11 8 1 354 348 341 335 327 323 321 317 312 309 306 300 296 296 297 297 296 296 294
49 51 49 52 59 57 60 59 56 53 52 49 47 40 33 30 31 26 19 11 5 1 358 351 344 339 333 330 327 324 319 313 307 301 302 302 299 294 294 295 294 293 293
40 44 49 50 53 58 60 53 52 49 45 42 42 31 23 28 30 22 18 9 2 359 352 344 336 332 327 323 323 322 320 315 306 301 301 302 300 295 293 294 296 295 293
36 42 50 46 51 55 57 49 44 36 34 34 32 23 16 19 20 14 7 3 0 356 350 346 341 335 329 323 321 319 316 313 304 300 299 300 300 297 295 297 297 297 297
36 34 38 41 48 56 57 44 36 29 27 27 27 19 8 11 10 4 359 356 355 352 348 345 341 336 329 323 318 316 311 307 307 303 297 297 298 296 294 295 297 296 296
26 27 42 42 45 47 41 33 30 20 15 15 14 13 10 7 1 359 354 350 346 342 340 339 337 333 327 323 318 316 313 310 307 306 304 301 298 296 296 296 297 296 297
13 15 34 29 30 28 23 15 8 5 6 6 5 3 3 1 357 351 345 341 337 335 334 332 331 329 326 322 319 316 313 312 308 307 307 304 301 298 297 298 295 295 298
Height
5869 5868 5868 5868 5868 5868 5867 5867 5867 5868 5868 5868 5869 5869 5870 5870 5870 5870 5871 5872 5872 5872 5872 5873 5873 5873 5874 5874 5876 5878 5879 5879 5880 5882 5883 5884 5885 5886 5887 5888 5889 5890 5890
5870 5870 5869 5869 5868 5868 5868 5868 5868 5868 5869 5869 5870 5870 5870 5870 5870 5870 5871 5872 5872 5873 5873 5873 5873 5873 5872 5872 5874 5877 5878 5879 5880 5881 5882 5883 5884 5885 5886 5887 5888 5889 5890
5871 5871 5870 5870 5869 5869 5869 5868 5868 5868 5869 5870 5870 5871 5871 5870 5870 5871 5872 5872 5873 5874 5874 5874 5874 5873 5871 5871 5874 5877 5878 5879 5880 5881 5882 5883 5884 5885 5886 5886 5887 5888 5889
5872 5871 5871 5871 5871 5870 5870 5870 5869 5870 5870 5870 5871 5871 5872 5872 5871 5872 5873 5873 5874 5874 5874 5874 5874 5874 5873 5874 5876 5877 5878 5880 5880 5881 5882 5883 5883 5884 5885 5886 5887 5888 5888
5874 5873 5872 5872 5872 5871 5871 5871 5871 5871 5871 5871 5872 5872 5873 5873 5874 5874 5874 5875 5875 5875 5875 5875 5875 5875 5875 5876 5877 5878 5879 5880 5880 5881 5882 5882 5883 5883 5884 5885 5886 5887 5888
5875 5874 5873 5873 5873 5872 5872 5872 5872 5872 5872 5873 5873 5873 5874 5874 5875 5875 5875 5875 5876 5876 5876 5876 5876 5876 5877 5877 5878 5878 5879 5880 5880 5881 5882 5882 5882 5882 5883 5884 5885 5886 5887
5877 5876 5875 5875 5874 5874 5874 5873 5873 5873 5874 5874 5874 5874 5875 5875 5875 5875 5876 5876 5876 5876 5877 5877 5877 5877 5878 5878 5878 5879 5880 5880 5880 5881 5882 5881 5881 5882 5882 5883 5884 5885 5886
5878 5877 5877 5876 5876 5875 5875 5875 5875 5875 5875 5875 5875 5875 5876 5876 5876 5876 5876 5877 5877 5877 5877 5877 5877 5878 5878 5878 5879 5879 5880 5880 5881 5882 5882 5882 5881 5882 5882 5883 5883 5884 5885
5880 5879 5878 5878 5877 5876 5876 5876 5876 5876 5876 5876 5876 5876 5876 5876 5877 5877 5877 5877 5877 5877 5877 5877 5878 5878 5879 5879 5880 5880 5880 5881 5881 5881 5881 5882 5882 5882 5882 5882 5883 5883 5884
5881 5880 5880 5879 5879 5878 5877 5877 5877 5877 5877 5877 5877 5877 5877 5877 5877 5878 5878 5878 5878 5878 5878 5877 5878 5879 5879 5880 5880 5880 5880 5880 5880 5881 5881 5881 5882 5882 5882 5882 5882 5883 5883
5883 5882 5882 5881 5880 5880 5879 5879 5879 5878 5878 5878 5878 5878 5878 5878 5878 5878 5879 5879 5879 5879 5879 5878 5879 5879 5880 5880 5880 5880 5880 5880 5880 5880 5881 5881 5881 5881 5881 5882 5882 5882 5882
5885 5884 5883 5883 5882 5881 5881 5881 5880 5880 5880 5880 5880 5879 5879 5879 5879 5879 5880 5880 5880 5880 5880 5880 5880 5880 5880 5880 5880 5881 5881 5881 5881 5880 5881 5881 5881 5881 5881 5881 5881 5881 5881
5886 5886 5885 5884 5884 5883 5883 5882 5882 5882 5882 5881 5881 5881 5881 5881 5881 5881 5881 5881 5881 5881 5882 5882 5881 5881 5881 5881 5881 5881 5881 5881 5881 5881 5881 5881 5881 5881 5881 5881 5880 5880 5880
5888 5888 5887 5887 5886 5885 5885 5884 5884 5884 5883 5883 5883 5883 5882 5882 5882 5882 5882 5882 5883 5883 5883 5882 5882 5882 5882 5882 5882 5882 5881 5881 5881 5881 5881 5881 5880 5880 5880 5880 5880 5879 5879
5889 5889 5888 5888 5888 5887 5886 5886 5886 5885 5885 5885 5884 5884 5884 5884 5883 5884 5884 5884 5884 5884 5883 5883 5883 5883 5883 5883 5882 5882 5882 5882 5881 5881 5880 5880 5880 5880 5879 5879 5879 5878 5878
5891 5890 5890 5889 5889 5888 5888 5887 5887 5887 5887 5886 5886 5885 5885 5885 5885 5885 5885 5885 5885 5884 5884 5884 5884 5883 5883 5883 5882 5882 5882 5881 5881 5881 5880 5880 5880 5879 5878 5878 5877 5876 5876
5893 5892 5891 5891 5890 5889 5889 5889 5888 5888 5888 5888 5887 5887 5886 5886 5886 5886 5886 5885 5885 5885 5885 5885 5884 5883 5883 5882 5882 5882 5881 5881 5880 5880 5879 5879 5878 5878 5877 5876 5876 5875 5874
5894 5893 5892 5892 5891 5891 5890 5890 5889 5889 5889 5889 5888 5888 5888 5887 5887 5887 5887 5886 5886 5885 5885 5885 5884 5884 5883 5883 5882 5881 5881 5880 5880 5879 5878 5878 5877 5876 5876 5875 5874 5873 5872
5895 5894 5893 5893 5892 5892 5891 5891 5891 5890 5890 5890 5889 5889 5888 5888 5888 5888 5887 5887 5886 5886 5885 5885 5884 5884 5883 5882 5882 5881 5880 5879 5878 5878 5877 5876 5875 5875 5874 5873 5872 5871 5870
5896 5895 5895 5894 5893 5893 5892 5892 5892 5891 5891 5891 5890 5890 5889 5889 5888 5888 5888 5887 5886 5886 5885 5884 5884 5883 5882 5881 5881 5880 5879 5878 5877 5876 5875 5875 5874 5873 5872 5871 5870 5869 5868
5897 5897 5896 5895 5894 5894 5894 5893 5893 5892 5892 5891 5891 5890 5890 5889 5889 5888 5888 5887 5886 5886 5885 5884 5883 5883 5882 5881 5880 5879 5878 5876 5875 5874 5873 5873 5872 5871 5870 5869 5868 5866 5865
5898 5897 5897 5896 5895 5895 5895 5894 5894 5893 5893 5892 5892 5891 5890 5889 5889 5888 5888 5887 5886 5885 5884 5883 5882 5882 5881 5880 5878 5877 5876 5876 5874 5872 5871 5870 5869 5868 5867 5866 5865 5863 5862
5898 5898 5897 5896 5896 5895 5895 5894 5894 5894 5893 5893 5892 5891 5891 5890 5889 5888 5887 5887 5886 5885 5883 5882 5881 5880 5879 5878 5877 5876 5874 5873 5872 5871 5869 5868 5866 5865 5864 5863 5862 5860 5859
5898 5898 5897 5897 5896 5895 5895 5895 5894 5894 5893 5893 5892 5891 5891 5890 5889 5888 5887 5886 5885 5884 5883 5881 5880 5879 5878 5876 5875 5873 5872 5871 5869 5868 5867 5865 5864 5862 5861 5859 5858 5856 5855
5899 5898 5897 5897 5896 5896 5895 5895 5894 5894 5893 5892 5891 5891 5890 5889 5888 5888 5887 5886 5884 5883 5882 5880 5879 5877 5876 5874 5873 5871 5870 5868 5866 5865 5864 5863 5861 5859 5858 5856 5854 5852 5851
5898 5898 5897 5897 5896 5896 5895 5895 5894 5894 5893 5892 5891 5890 5889 5889 5888 5887 5886 5885 5883 5882 5880 5879 5877 5876 5874 5872 5871 5869 5867 5866 5864 5862 5860 5859 5857 5856 5854 5852 5850 5849 5847